Regional Weather Roundup
Issued by NWS

Home | Current Version | Previous Version | Text Only | Print | Product List | Glossary On
Versions: 1 2 3 4 5 6 7 8 9 10 11 12 13 14 15 16 17 18 19 20 21 22 23 24 25 26 27 28 29 30 31 32 33 34 35 36 37 38 39 40 41 42 43 44 45 46 47 48 49 50
000
ASUS43 KLMK 231310
RWRKY
KENTUCKY REGIONAL WEATHER ROUNDUP
NATIONAL WEATHER SERVICE LOUISVILLE KY
900 AM EDT TUE SEP 23 2014

NOTE "FAIR" INDICATES FEW OR NO CLOUDS BELOW 12,000 FEET
WITH NO SIGNIFICANT WEATHER AND/OR OBSTRUCTIONS TO VISIBILITY.

KYZ001>023-026-027-061>063-070>075-231400-
WESTERN AND SOUTH CENTRAL KENTUCKY

CITY           SKY/WX    TMP DP  RH WIND       PRES   REMARKS
PADUCAH        SUNNY     54  49  83 CALM      30.28R
HENDERSON      SUNNY     52  50  93 NE6       30.31S
OWENSBORO      SUNNY     55  48  77 E7        30.31S
HOPKINSVILLE   SUNNY     51  49  90 NE5       30.28R
BOWLING GREEN  SUNNY    N/A N/A N/A CALM      30.30R
GLASGOW        SUNNY     49  46  87 CALM      30.29S
$$

KYZ024-025-028>034-038-045-046-053-231400-
NORTH CENTRAL KENTUCKY

CITY           SKY/WX    TMP DP  RH WIND       PRES   REMARKS
LOUISVILLE/SDF SUNNY     56  45  66 CALM      30.33R
LOUISVILLE/LOU SUNNY     55  44  66 N3        30.33R
FORT KNOX      SUNNY     51  45  79 NE2       30.31R
$$

KYZ035>037-039>044-047>052-055>060-089>105-231400-
NORTHEAST KENTUCKY

CITY           SKY/WX    TMP DP  RH WIND       PRES   REMARKS
LEXINGTON      SUNNY     54  46  74 NE5       30.32R
COVINGTON      SUNNY     53  46  77 VRB3      30.34R
FRANKFORT      SUNNY     50  45  83 E5        30.32R
$$

KYZ054-064>069-076>088-106>120-231400-
SOUTHEAST KENTUCKY

CITY           SKY/WX    TMP DP  RH WIND       PRES   REMARKS
JACKSON        SUNNY     51  46  83 CALM      30.31R
LONDON         SUNNY     52  47  83 N5        30.30S
SOMERSET       SUNNY     50  48  93 NE3       30.31R
MIDDLESBORO    CLOUDY    47  47 100 CALM      30.31R FOG
MONTICELLO     SUNNY     53  49  86 CALM      30.30S
$$



USA.gov is the U.S. government's official web portal to all federal, state and local government web resources and services.